Regional Weather Roundup
Issued by NWS Pendleton, OR

Home | Current Version | Previous Version | Text Only | Print | Product List | Glossary On
Versions: 1 2 3 4 5 6 7 8 9 10 11 12 13 14 15 16 17 18 19 20 21 22 23 24 25 26 27 28 29 30 31 32 33 34 35 36 37 38 39 40 41 42 43 44 45 46 47 48 49 50
814
ASUS46 KPDT 301325
RWRPDT
PENDLETON REGIONAL WEATHER ROUNDUP
NATIONAL WEATHER SERVICE PENDLETON OREGON
600 AM PDT TUE MAY 30 2017

NOTE: FAIR INDICATES FEW OR NO CLOUDS BELOW 12,000 FEET WITH NO
SIGNIFICANT WEATHER AND/OR OBSTRUCTIONS TO VISIBILITY.

# INDICATES UNOFFICIAL STATION AND DATA

WAZ520-301410-
EAST SLOPES OF WASHINGTON CASCADES

CITY            SKY/WX      TMP DP  RH  WIND    PRES   REMARKS
#BULLFROG       N/A         50  48  93  CALM    N/A
#CLE ELUM HS    N/A         51  46  83  CALM    29.85F
#CLE ELUM LAKE  N/A         N/A N/A N/A CALM    29.83F
#EASTON DOT     N/A         52  48  86  CALM    N/A
#ELK HTS DOT    N/A         54  53  96  CALM    N/A
#GLENWOOD       N/A         52  50  93  CALM    29.79F
#NELSON 3SW     N/A         55  49  80  CALM    29.97F
#NILE           N/A         54  45  71  CALM    29.14S
#TEANAWAY 4NE   N/A         50  48  93  CALM    N/A
#TROUT LAKE 1NE N/A         51  47  86  CALM    29.80S
#TROUT LAKE 1E  N/A         48  45  89  CALM    29.91F
$$

WAZ521-301410-
SIMCOE HIGHLANDS

CITY            SKY/WX      TMP DP  RH  WIND    PRES   REMARKS
#BICKLETON HS   N/A         66  47  50  CALM    29.88F
#CENTERVILLE 1SWN/A         54  48  80  CALM    29.77R
#GOLDENDALE 1NE N/A         56  46  69  CALM    N/A
#GOLDENDALE 4W  N/A         56  36  47  CALM    29.91S
#GOODNOE HILLS  N/A         64  55  73  W6      N/A
#LYLE 6NE       N/A         56  54  93  S7      29.78S
#PITT 4SE       N/A         53  52  96  CALM    29.80F
$$

WAZ026-301410-
KITTITAS VALLEY

CITY            SKY/WX      TMP DP  RH  WIND    PRES   REMARKS
ELLENSBURG AP   PTCLDY      57  49  75  CALM    29.88F
YTC-OPS AREA    SUNNY       69  41  36  E5      29.95R
#ELLENSBURG CWU N/A         56  50  80  CALM    29.75S
#ELLENSBURG 3NE N/A         55  50  83  CALM    27.97S
#KITTITAS 3S    N/A         50  48  93  CALM    29.82S
#MANASTASH RDG  N/A         64  63  97  NW2     N/A
#ROCKY CYN DOT  N/A         59  53  80  NW5     N/A
#RYEGRASS DOT   N/A         67  46  47  CALM    N/A
#THORP 6N       N/A         56  48  74  N7      29.80F
$$

WAZ027-301410-
YAKIMA VALLEY

CITY            SKY/WX      TMP DP  RH  WIND    PRES   REMARKS
SUNNYSIDE AP    SUNNY       59  51  75  CALM    29.83S
YAKIMA AIRPORT  PTCLDY      61  49  65  W7      29.85F
YAKIMA-VAGABOND SUNNY       65  47  52  E6      29.84S
#DONALD 2NE     N/A         69  21  16  NW5     28.68F
#GRANDVIEW      N/A         62  50  65  CALM    29.80S
#MABTON         N/A         63  53  70  E1      29.82S
#MOXEE 2E       N/A         63  N/A N/A CALM    29.88F
#NACHES 2SW     N/A         63  48  58  W6      29.90S
#OUTLOOK DOT    N/A         63  51  65  CALM    29.79S
#PARKER DOT     N/A         71  45  39  S12     29.82S
#TERRACE HTS    N/A         60  50  69  CALM    29.75S
#TOPPENISH      N/A         64  51  63  CALM    29.70F
#I82 S UMTANUM RN/A         66  46  48  N9      N/A
#UNION GAP DOT  N/A         62  49  62  NE5     29.87S
#WEST VALLEY    N/A         59  49  69  CALM    29.78S
#W YAKIMA       N/A         65  49  56  N3      29.78S
#WILEY CITY 3W  N/A         64  44  48  CALM    29.83S
#ZILLAH DOT     N/A         60  51  72  E2      N/A
$$

WAZ028-301410-
LOWER COLUMBIA BASIN...WASHINGTON

CITY            SKY/WX      TMP DP  RH  WIND    PRES   REMARKS
HANFORD         MOSUNNY     61  46  58  NE6     29.82S
PASCO           SUNNY       56  52  86  N6      29.83S
PROSSER AWOS    N/A         61  54  78  CALM    29.86S
RICHLAND AWOS   SUNNY       61  54  78  CALM    29.83S
#BASIN CITY 5SW N/A         57  51  80  CALM    29.80R
#BENTON CITY    N/A         62  50  65  CALM    29.71S
#CONNELL 5N     N/A         60  48  64  NE3     29.79F
#CONNELL 5NW    N/A         59  49  69  CALM    29.75S
#ELTOPIA 6NW    N/A         59  51  75  CALM    28.82R
#KAHLOTUS       N/A         54  49  83  S12     29.79F
#KENNEWICK 3S   N/A         62  51  67  CALM    29.79R
#PATERSON       N/A         63  51  65  N1      29.78R
#PROSSER DOT    N/A         61  52  72  CALM    29.83S
#SAGEMOOR 2W    N/A         61  52  72  N1      29.67R
#TOUCHET 2S     N/A         50  49  96  CALM    29.77F
#WEST PASCO     N/A         60  52  75  CALM    29.79S
$$

WAZ029-301410-
FOOTHILLS OF THE BLUES...WASHINGTON

CITY            SKY/WX      TMP DP  RH  WIND    PRES   REMARKS
WALLA WALLA AP  SUNNY       67  45  45  E12     29.83F
#CLYDE 6NW      N/A         64  47  54  E7      29.77F
#DAYTON SCHOOL  N/A         59  39  47  VRB5    29.90F
#DELANEY DOT    N/A         49  44  83  CALM    29.87F
#LOWDEN 2SE     N/A         55  50  83  CALM    29.78F
#PLEASANT VIEW 1N/A         61  45  56  NE1     29.81F
#PRESCOTT       N/A         60  49  67  CALM    29.78F
#WHITMAN COLLEGEN/A         69  46  44  CALM    29.81F
#WAITSBURG 6SSE N/A         64  43  46  E5      29.79F
#WAITSBURG 8N   N/A         68  N/A N/A NW5     29.85F
#WALLA WALLA 5E N/A         64  48  56  NE5     N/A
#WALLA WALLA U  N/A         63  50  62  CALM    29.77F
#WHITMAN MISSIONN/A         55  50  83  CALM    29.80F
$$

WAZ030-301410-
BLUE MOUNTAINS...WASHINGTON

CITY            SKY/WX      TMP DP  RH  WIND    PRES   REMARKS
#DIXIE 5SE      N/A         73  37  27  E10     29.86F
$$

ORZ009-041-WAZ024-301410-
COLUMBIA RIVER GORGE

CITY            SKY/WX      TMP DP  RH  WIND    PRES   REMARKS
THE DALLES AP   PTCLDY      62  55  78  NW16G24 29.83S
#ARLINGTON AIRPON/A         65  55  70  W8      29.79R
#CELILO DOT     N/A         66  54  65  SW5     N/A
#LYLE           N/A         61  55  81  W8G28   29.85S
#MARYHILL       N/A         62  54  75  N1      29.70S
#MURDOCK        N/A         62  55  78  NW15G25 29.80R
#RUFUS DOT      N/A         66  66  100 W8      N/A
#SMITHVILLE     N/A         63  55  75  W15G26  29.76F

$$

ORZ510-301410-
NORTH CENTRAL OREGON

CITY            SKY/WX      TMP DP  RH  WIND    PRES   REMARKS
#ANTELOPE       N/A         54  48  80  CALM    29.62S
#CHENOWITH 1W   N/A         51  35  54  NW14    N/A
#COW CYN RST AREN/A         63  45  52  S2      N/A
#DUFUR          N/A         51  48  89  CALM    29.77F
#DUFUR 9E       N/A         63  51  65  CALM    29.80F
#GRASS VALLEY 1SN/A         63  48  58  CALM    29.90F
#KENT DOT       N/A         61  41  48  CALM    N/A
#MAUPIN SCHOOL  N/A         57  53  86  CALM    29.90R
#MORO SCHOOL    N/A         59  55  87  CALM    29.95S
#SHANIKO 5WSW   N/A         65  39  38  N6      N/A
#SHANIKO 4NW    N/A         65  41  41  E5      29.94F
#TYGH VALLEY 2NEN/A         55  51  86  CALM    29.79S
#WAPANITIA AIRPON/A         54  50  86  W1      29.80S
#WASCO 5NE      N/A         60  53  78  W5      29.76F
$$

ORZ511-301410-
CENTRAL OREGON

CITY            SKY/WX      TMP DP  RH  WIND    PRES   REMARKS
BEND AIRPORT    SUNNY       54  43  66  SW7     29.89S
MADRAS AIRPORT  SUNNY       54  46  74  SE7     29.92S
PRINEVILLE AP   SUNNY       50  45  83  CALM    29.94S
REDMOND AIRPORT SUNNY       51  41  68  SE6     29.92S
#ASHWOOD SCHOOL N/A         52  47  83  CALM    29.88S
#BEND 1SW       N/A         50  44  80  S1      N/A
#BEND-AWBREY    N/A         56  45  66  S5      29.75S
#BEND-KIM LN    N/A         50  43  77  SW1     29.70S
#CULVER         N/A         54  46  74  CALM    29.70S
#CULVER 8W      N/A         53  40  61  CALM    29.92F
#MADRAS 4S      N/A         58  13  17  CALM    N/A
#POWELL BUTTE   N/A         60  45  58  CALM    29.91S
#PRINEVILLE     N/A         51  45  80  CALM    29.84S
#PRINEVILLE 3N  N/A         51  46  83  E1      29.77S
#WARM SPRINGS   N/A         52  47  83  CALM    29.70S

$$


ORZ509-301410-
EAST SLOPES OF OREGON CASCADES

CITY            SKY/WX      TMP DP  RH  WIND    PRES   REMARKS
SISTERS AWOS    N/A         46  41  83  CALM    29.91F
#CAMP SHERMAN   N/A         43  39  86  CALM    29.88S
#LA PINE 4SW    N/A         41  37  86  CALM    30.00R
#LA PINE 4NW    N/A         40  36  85  CALM    29.82S
#LAVA BUTTE DOT N/A         47  43  86  NE5     N/A
#SISTERS 3N     N/A         45  37  73  CALM    29.94S
#SUNRIVER       N/A         45  42  89  CALM    29.79S
#TUMALO 3W      N/A         62  44  52  SW1     29.62F
#WANOGA BUTTE D N/A         58  34  40  CALM    N/A

$$

ORZ044-301410-
LOWER COLUMBIA BASIN...OREGON

CITY            SKY/WX      TMP DP  RH  WIND    PRES   REMARKS
HERMISTON       SUNNY       59  51  75  NE6     29.81S
#BOARDMAN SCHOOLN/A         62  52  70  CALM    29.80S
#BOARDMAN 8SW   N/A         63  53  70  S3      29.78S
#ECHO 8SW       N/A         62  49  62  CALM    29.83S
#I-84 EX 198 DOTN/A         67  49  52  NE15    N/A
#IONE SCHOOL    N/A         59  40  49  CALM    29.79R
#UMATILLA       N/A         62  50  65  CALM    29.72S
$$

ORZ507-301410-
NORTHERN FOOTHILLS OF THE BLUES

CITY            SKY/WX      TMP DP  RH  WIND    PRES   REMARKS
PENDLETON AIRPT SUNNY       58  49  72  E6      29.84F
#ADAMS 3WNW     N/A         67  48  50  E3      29.78F
#ATHENA         N/A         57  48  72  CALM    29.80F
#CAYUSE         N/A         68  48  49  E12     29.75F
#HELIX SCHOOL   N/A         55  46  72  CALM    29.78F
#HELIX 3N       N/A         64  46  52  E1      29.84F
#HOLDMAN 5SE    N/A         64  49  58  SE5     29.83F
#HOLDMAN 6E     N/A         67  48  50  S1      29.57F
#M-F FERNDALE   N/A         59  47  64  CALM    29.79F
#M-F GROVE ELEM N/A         68  41  37  S3      29.81F
#M-FREEWATER 5SEN/A         68  46  45  NE7     29.83F
#PENDLETON DNTN N/A         56  44  64  CALM    29.83S
#PDT AQUATIC CTRN/A         57  46  67  CALM    29.84S
#PDT SUNRIDGE   N/A         55  49  80  CALM    29.85F
#PENDLETON 7NW  N/A         59  48  67  E8      32.30S
#PILOT ROCK 1S  N/A         59  42  53  CALM    29.87F
#PILOT ROCK     N/A         61  46  58  CALM    29.88F
#TUTUILLA       N/A         52  48  86  CALM    29.80F
#UMAPINE 2E     N/A         64  51  63  CALM    29.78F
#WESTON SCHOOL  N/A         72  41  33  S2      29.80F

$$

ORZ508-301410-
SOUTHERN FOOTHILLS OF THE BLUES

CITY            SKY/WX      TMP DP  RH  WIND    PRES   REMARKS
LEXINGTON       SUNNY       64  45  50  E7      29.88S
#AJAX           N/A         66  38  36  S1      30.03S
#CONDON 5W      N/A         66  39  37  CALM    29.91F
#FOSSIL SCHOOL  N/A         58  47  67  CALM    29.84F
#HEPPNER EOC    N/A         64  45  50  CALM    29.70R
#HEPPNER 4NE    N/A         68  44  42  E1      29.74S
#LEXINGTON 2SE  N/A         60  45  58  CALM    29.82
#MIKKALO        N/A         60  43  53  CALM    29.97F
#OLEX 4N        N/A         61  48  62  SW6     29.83S
#RUGGS 5NE      N/A         69  42  37  CALM    30.11R
#RUGGS 2SW      N/A         71  43  36  SE5     29.76F

$$

ORZ502-503-301410-
BLUE MOUNTAINS

CITY            SKY/WX      TMP DP  RH  WIND    PRES   REMARKS
MEACHAM         SUNNY       47  40  76  CALM    29.99F
#BATTLE MTN DOT N/A         52  41  66  S8      N/A
#GRANITE        N/A         34  30  85  CALM    29.83F
#GREENHORN 9SW  N/A         38  36  92  CALM    30.04S
#HARDMAN 10S    N/A         59  42  53  S1      29.85F
#LADD CYN SMT   N/A         45  43  93  E2      N/A
#LADD CREEK ODOTN/A         49  45  86  S3      N/A
#LONG CREEK HS  N/A         46  37  71  CALM    N/A
#N POWDER DOT   N/A         44  43  96  CALM    N/A
#PIKES PEAK     N/A         74  37  26  N8      27.99S
#SUMMERVILLE 5NWN/A         52  48  86  CALM    30.01S
#TOLLGATE       N/A         55  43  64  CALM    29.91F
#TROY SCHOOL    N/A         50  47  89  CALM    29.76S
#UKIAH          N/A         43  41  93  CALM    29.79S
#WESTON 4E      N/A         65  44  46  E9      29.73F
$$

ORZ505-301410-
JOHN DAY BASIN

CITY            SKY/WX      TMP DP  RH  WIND    PRES   REMARKS
JOHN DAY        SUNNY       54  34  47  E10     29.99F
#ANTELOPE 9ESE  N/A         59  48  67  CALM    N/A
#DAYVILLE SCHOOLN/A         56  38  51  CALM    29.92F
#MITCHELL       N/A         64  49  58  CALM    30.07F
#MITCHELL 8NW   N/A         66  40  38  SE5     29.74F
#MONUMENT HS    N/A         52  43  71  CALM    29.89F
#MT. VERNON 5SE N/A         57  38  49  CALM    29.94F
#SPRAY SCHOOL   N/A         55  N/A N/A CALM    N/A
$$

ORZ506-301410-
OCHOCO AND JOHN DAY HIGHLANDS

CITY            SKY/WX      TMP DP  RH  WIND    PRES   REMARKS
#HORSE RIDGE DO N/A         40  36  85  SE2     N/A
#PAULINA ODOT   N/A         51  39  63  SW2     N/A
#PINE MTN OBS   N/A         57  35  43  SE9     N/A
#PRAIRIE CITY   N/A         42  35  76  CALM    30.14F
#SENECA         N/A         40  N/A N/A CALM    N/A
#SENECA 9NW     N/A         36  33  89  CALM    29.87S
$$

ORZ049-301410-
GRANDE RONDE VALLEY

CITY            SKY/WX      TMP DP  RH  WIND    PRES   REMARKS
LA GRANDE       SUNNY       48  39  71  N3      29.98S
#COVE           N/A         50  46  86  NE1     30.01S
#COVE SCHOOL    N/A         50  44  80  CALM    30.00F
#COVE 6NW       N/A         47  43  86  CALM    29.87F
#ELGIN 3N       N/A         50  44  80  CALM    29.96S
#ELGIN 1E       N/A         48  43  83  CALM    N/A
#IMBLER SCHOOL  N/A         50  44  80  CALM    29.95R
#ISLAND CITY 4N N/A         55  52  90  CALM    29.97R
#LA GRANDE-LEFFEN/A         57  47  69  CALM    29.98S
#UNION 1S       N/A         55  44  66  CALM    29.85S
$$

ORZ050-301410-
WALLOWA COUNTY

CITY            SKY/WX      TMP DP  RH  WIND    PRES   REMARKS
JOSEPH AIRPORT  SUNNY       52  39  61  S5      30.04S
#ENTERPRISE HS  N/A         46  42  86  CALM    29.75S
#IMNAHA SCHOOL  N/A         52  46  80  N1      29.97F
#IMNAHA 10S     N/A         55  44  66  SW3     29.99F
#JOSEPH         N/A         59  43  55  CALM    30.02F
#JOSEPH 3N      N/A         47  39  74  NE1     30.05F
#LOSTINE        N/A         48  44  86  CALM    29.67F
#LOSTINE 3SE    N/A         50  44  80  SE2     30.05F
#MT HOWARD 8000 N/A         53  26  35  S7      30.25F
#PROMISE 1S     N/A         53  46  77  CALM    29.95F
#WALLOWA LAKE   N/A         58  37  45  S3      30.06F
#WALLOWA SCHOOL N/A         47  43  86  CALM    29.97F



$$



USA.gov is the U.S. government's official web portal to all federal, state and local government web resources and services.